Regional Weather Roundup
Issued by NWS

Home | Current Version | Previous Version | Graphics & Text | Print | Product List | Glossary On
Versions: 1 2 3 4 5 6 7 8 9 10 11 12 13 14 15 16 17 18 19 20 21 22 23 24 25 26 27 28 29 30 31 32 33 34 35 36 37 38 39 40 41 42 43 44 45 46 47 48 49 50
000
ASUS43 KBIS 030420
RWRND

NORTH DAKOTA REGIONAL WEATHER ROUNDUP
NATIONAL WEATHER SERVICE BISMARCK ND
1000 PM CST MON MAR 02 2015

NOTE: "FAIR" INDICATES FEW OR NO CLOUDS BELOW 12,000 FEET WITH NO
SIGNIFICANT WEATHER AND/OR OBSTRUCTIONS TO VISIBILITY.


NDZ001>003-009>011-017-030500-
NORTHWEST NORTH DAKOTA

CITY           SKY/WX    TMP DP  RH WIND       PRES   REMARKS
WILLISTON      FLURRIES  17   9  70 N23G29    29.93R WCI  -1
MINOT          FLURRIES  18  11  74 W26G33    29.81R WCI  -1
MINOT AFB      FAIR      18  14  86 NW25G35   29.79R WCI  -1
$$

NDZ018>021-031>035-040>046-030500-
SOUTHWEST NORTH DAKOTA

CITY           SKY/WX    TMP DP  RH WIND       PRES   REMARKS
BISMARCK       FAIR      27  23  85 NW6       29.74R
DICKINSON      CLOUDY    23  16  74 NW28G35   29.78R WCI   6
GARRISON         N/A     19  13  77 NW30G41   29.79R WCI   0
HETTINGER ARPT FAIR      31  16  54 N20G25    29.73R WCI  19
$$

NDZ004>008-012>016-024-026-027-054-030500-
NORTHEAST NORTH DAKOTA

CITY           SKY/WX    TMP DP  RH WIND       PRES   REMARKS
GRAND FORKS    FAIR      25  18  74 S20       29.80F WCI  11
GRND FRKS AFB  FAIR      25  17  74 S15       29.78F WCI  12
DEVILS LAKE    FAIR      21  18  86 SW12      29.72S WCI   9
$$

NDZ022-023-025-028>030-036>039-047>053-030500-
SOUTHEAST NORTH DAKOTA

CITY           SKY/WX    TMP DP  RH WIND       PRES   REMARKS
FARGO          FAIR      27  17  66 S25G35    29.83F WCI  12
JAMESTOWN      FAIR      26  18  71 S15       29.73F WCI  14
$$



USA.gov is the U.S. government's official web portal to all federal, state and local government web resources and services.